Time,TemperatureF,DewpointF,PressureIn,WindDirection,WindDirectionDegrees,WindSpeedMPH,WindSpeedGustMPH,Humidity,HourlyPrecipIn,Conditions,Clouds,dailyrainin,SoftwareType,DateUTC
2013-05-21 00:02:00,77.0,-99.9,29.73,South,180,15.0,26.0,-999,0.00,,,0.00,,2013-05-21 05:02:00,
2013-05-21 00:12:00,77.0,-99.9,29.72,South,180,15.0,22.0,-999,0.00,,,0.00,,2013-05-21 05:12:00,
2013-05-21 00:22:00,77.0,-99.9,29.72,South,180,15.0,22.0,-999,0.00,,,0.00,,2013-05-21 05:22:00,
2013-05-21 00:32:00,76.0,-99.9,29.72,South,180,14.0,20.0,-999,0.00,,,0.00,,2013-05-21 05:32:00,
2013-05-21 00:42:00,64.0,-99.9,29.79,WSW,248,12.0,26.0,-999,0.10,,,0.10,,2013-05-21 05:42:00,
2013-05-21 00:52:00,64.0,-99.9,29.79,WSW,248,12.0,26.0,-999,0.10,,,0.10,,2013-05-21 05:52:00,
2013-05-21 01:02:00,64.0,-99.9,29.80,West,270,9.0,22.0,-999,0.11,,,0.11,,2013-05-21 06:02:00,
2013-05-21 01:12:00,64.0,-99.9,29.80,West,270,9.0,22.0,-999,0.11,,,0.11,,2013-05-21 06:12:00,
2013-05-21 01:21:00,64.0,-99.9,29.80,West,270,12.0,22.0,-999,0.12,,,0.12,,2013-05-21 06:21:00,
2013-05-21 01:32:00,63.0,-99.9,29.81,WSW,248,12.0,22.0,-999,0.17,,,0.16,,2013-05-21 06:32:00,
2013-05-21 01:42:00,63.0,-99.9,29.81,WSW,248,12.0,22.0,-999,0.17,,,0.16,,2013-05-21 06:42:00,
2013-05-21 01:52:00,63.0,-99.9,29.80,WSW,248,12.0,23.0,-999,0.10,,,0.20,,2013-05-21 06:52:00,
2013-05-21 02:01:00,63.0,-99.9,29.80,SW,225,13.0,22.0,-999,0.13,,,0.24,,2013-05-21 07:01:00,
2013-05-21 02:11:00,63.0,-99.9,29.80,SW,225,13.0,22.0,-999,0.13,,,0.24,,2013-05-21 07:11:00,
2013-05-21 02:22:00,64.0,-99.9,29.80,SW,225,17.0,24.0,-999,0.15,,,0.26,,2013-05-21 07:22:00,
2013-05-21 02:32:00,64.0,-99.9,29.78,SSW,203,10.0,18.0,-999,0.11,,,0.28,,2013-05-21 07:32:00,
2013-05-21 02:42:00,64.0,-99.9,29.78,SSW,203,10.0,18.0,-999,0.11,,,0.28,,2013-05-21 07:42:00,
2013-05-21 02:52:00,63.0,-99.9,29.76,South,180,12.0,15.0,-999,0.08,,,0.28,,2013-05-21 07:52:00,
2013-05-21 03:02:00,63.0,-99.9,29.75,SSW,203,10.0,21.0,-999,0.05,,,0.29,,2013-05-21 08:02:00,
2013-05-21 03:11:00,63.0,-99.9,29.73,South,180,3.0,12.0,-999,0.02,,,0.29,,2013-05-21 08:11:00,
2013-05-21 03:21:00,63.0,-99.9,29.73,South,180,3.0,12.0,-999,0.02,,,0.29,,2013-05-21 08:21:00,
2013-05-21 03:31:00,63.0,-99.9,29.71,SW,225,5.0,8.0,-999,0.01,,,0.29,,2013-05-21 08:31:00,
2013-05-21 03:42:00,64.0,-99.9,29.71,SSW,203,6.0,9.0,-999,0.02,,,0.30,,2013-05-21 08:42:00,
2013-05-21 03:52:00,64.0,-99.9,29.71,SSW,203,6.0,9.0,-999,0.02,,,0.30,,2013-05-21 08:52:00,
2013-05-21 04:01:00,65.0,-99.9,29.72,SSW,203,8.0,9.0,-999,0.01,,,0.30,,2013-05-21 09:01:00,
2013-05-21 04:11:00,65.0,-99.9,29.72,SSW,203,8.0,9.0,-999,0.01,,,0.30,,2013-05-21 09:11:00,
2013-05-21 04:21:00,66.0,-99.9,29.73,SSW,203,14.0,20.0,-999,0.01,,,0.30,,2013-05-21 09:21:00,
2013-05-21 04:33:00,66.0,-99.9,29.75,SSW,203,16.0,24.0,-999,0.01,,,0.30,,2013-05-21 09:33:00,
2013-05-21 04:42:00,66.0,-99.9,29.75,SSW,203,16.0,24.0,-999,0.01,,,0.30,,2013-05-21 09:42:00,
2013-05-21 04:53:00,67.0,-99.9,29.74,SW,225,22.0,31.0,-999,0.00,,,0.30,,2013-05-21 09:53:00,
2013-05-21 05:03:00,67.0,-99.9,29.75,SW,225,23.0,41.0,-999,0.00,,,0.30,,2013-05-21 10:03:00,
2013-05-21 05:12:00,67.0,-99.9,29.75,SW,225,23.0,41.0,-999,0.00,,,0.30,,2013-05-21 10:12:00,
2013-05-21 05:22:00,66.0,-99.9,29.75,SW,225,20.0,35.0,-999,0.00,,,0.30,,2013-05-21 10:22:00,
2013-05-21 05:33:00,66.0,-99.9,29.75,SW,225,15.0,28.0,-999,0.00,,,0.30,,2013-05-21 10:33:00,
2013-05-21 05:42:00,66.0,-99.9,29.75,SW,225,15.0,28.0,-999,0.00,,,0.30,,2013-05-21 10:42:00,
2013-05-21 05:53:00,65.0,-99.9,29.75,SSW,203,10.0,16.0,-999,0.00,,,0.30,,2013-05-21 10:53:00,
2013-05-21 06:02:00,65.0,-99.9,29.75,South,180,15.0,21.0,-999,0.00,,,0.30,,2013-05-21 11:02:00,
2013-05-21 06:12:00,65.0,-99.9,29.75,South,180,15.0,21.0,-999,0.00,,,0.30,,2013-05-21 11:12:00,
2013-05-21 06:22:00,65.0,-99.9,29.76,South,180,10.0,16.0,-999,0.00,,,0.30,,2013-05-21 11:22:00,
2013-05-21 06:32:00,64.0,-99.9,29.76,South,180,13.0,21.0,-999,0.00,,,0.30,,2013-05-21 11:32:00,
2013-05-21 06:42:00,64.0,-99.9,29.76,South,180,13.0,21.0,-999,0.00,,,0.30,,2013-05-21 11:42:00,
2013-05-21 06:52:00,65.0,-99.9,29.73,South,180,0.0,14.0,-999,0.00,,,0.30,,2013-05-21 11:52:00,
2013-05-21 07:02:00,65.0,-99.9,29.73,South,180,0.0,0.0,-999,0.00,,,0.30,,2013-05-21 12:02:00,
2013-05-21 07:11:00,65.0,-99.9,29.73,South,180,0.0,0.0,-999,0.00,,,0.30,,2013-05-21 12:11:00,
2013-05-21 07:21:00,66.0,-99.9,29.74,South,180,10.0,13.0,-999,0.00,,,0.30,,2013-05-21 12:21:00,
2013-05-21 07:32:00,66.0,-99.9,29.77,South,180,10.0,14.0,-999,0.00,,,0.30,,2013-05-21 12:32:00,
2013-05-21 07:42:00,66.0,-99.9,29.77,South,180,10.0,14.0,-999,0.00,,,0.30,,2013-05-21 12:42:00,
2013-05-21 07:52:00,66.0,-99.9,29.77,South,180,10.0,21.0,-999,0.00,,,0.30,,2013-05-21 12:52:00,
2013-05-21 08:01:00,66.0,-99.9,29.78,South,180,12.0,18.0,-999,0.00,,,0.30,,2013-05-21 13:01:00,
2013-05-21 08:12:00,66.0,-99.9,29.78,South,180,12.0,18.0,-999,0.00,,,0.30,,2013-05-21 13:12:00,
2013-05-21 08:22:00,67.0,-99.9,29.78,South,180,14.0,17.0,-999,0.00,,,0.30,,2013-05-21 13:22:00,
2013-05-21 08:32:00,69.0,-99.9,29.78,South,180,15.0,20.0,-999,0.00,,,0.30,,2013-05-21 13:32:00,
2013-05-21 08:42:00,69.0,-99.9,29.78,South,180,15.0,20.0,-999,0.00,,,0.30,,2013-05-21 13:42:00,
2013-05-21 08:52:00,69.0,-99.9,29.78,South,180,15.0,20.0,-999,0.00,,,0.30,,2013-05-21 13:52:00,
2013-05-21 09:02:00,71.0,-99.9,29.78,South,180,12.0,18.0,-999,0.00,,,0.30,,2013-05-21 14:02:00,
2013-05-21 09:11:00,71.0,-99.9,29.78,South,180,12.0,18.0,-999,0.00,,,0.30,,2013-05-21 14:11:00,
2013-05-21 09:21:00,69.0,-99.9,29.78,South,180,14.0,22.0,-999,0.00,,,0.30,,2013-05-21 14:21:00,
2013-05-21 09:32:00,70.0,-99.9,29.79,South,180,16.0,22.0,-999,0.00,,,0.30,,2013-05-21 14:32:00,
2013-05-21 09:42:00,70.0,-99.9,29.79,South,180,17.0,29.0,-999,0.00,,,0.30,,2013-05-21 14:42:00,
2013-05-21 09:52:00,70.0,-99.9,29.79,South,180,17.0,29.0,-999,0.00,,,0.30,,2013-05-21 14:52:00,
2013-05-21 10:01:00,71.0,-99.9,29.79,South,180,18.0,24.0,-999,0.00,,,0.30,,2013-05-21 15:01:00,
2013-05-21 10:11:00,72.0,-99.9,29.78,SSW,203,16.0,28.0,-999,0.00,,,0.30,,2013-05-21 15:11:00,
2013-05-21 10:21:00,72.0,-99.9,29.78,SSW,203,16.0,28.0,-999,0.00,,,0.30,,2013-05-21 15:21:00,
2013-05-21 10:33:00,73.0,-99.9,29.77,SSW,203,17.0,28.0,-999,0.00,,,0.30,,2013-05-21 15:33:00,
2013-05-21 10:42:00,72.0,-99.9,29.77,South,180,16.0,24.0,-999,0.00,,,0.30,,2013-05-21 15:42:00,
2013-05-21 10:53:00,72.0,-99.9,29.77,South,180,16.0,24.0,-999,0.00,,,0.30,,2013-05-21 15:53:00,
2013-05-21 11:03:00,74.0,-99.9,29.76,South,180,18.0,24.0,-999,0.00,,,0.30,,2013-05-21 16:03:00,
2013-05-21 11:13:00,75.0,-99.9,29.76,South,180,16.0,23.0,-999,0.00,,,0.30,,2013-05-21 16:13:00,
2013-05-21 11:23:00,75.0,-99.9,29.76,South,180,16.0,23.0,-999,0.00,,,0.30,,2013-05-21 16:23:00,
2013-05-21 11:32:00,76.0,-99.9,29.76,SSW,203,15.0,25.0,-999,0.00,,,0.30,,2013-05-21 16:32:00,
2013-05-21 11:42:00,77.0,-99.9,29.76,SSW,203,15.0,26.0,-999,0.00,,,0.30,,2013-05-21 16:42:00,
2013-05-21 11:53:00,77.0,-99.9,29.76,SSW,203,15.0,26.0,-999,0.00,,,0.30,,2013-05-21 16:53:00,
2013-05-21 12:02:00,77.0,-99.9,29.76,SSW,203,16.0,23.0,-999,0.00,,,0.30,,2013-05-21 17:02:00,
2013-05-21 12:12:00,78.0,-99.9,29.75,SSW,203,17.0,25.0,-999,0.00,,,0.30,,2013-05-21 17:12:00,
2013-05-21 12:23:00,78.0,-99.9,29.75,SSW,203,17.0,25.0,-999,0.00,,,0.30,,2013-05-21 17:23:00,
2013-05-21 12:33:00,78.0,-99.9,29.74,South,180,20.0,24.0,-999,0.00,,,0.30,,2013-05-21 17:33:00,
2013-05-21 12:44:00,79.0,-99.9,29.74,SSW,203,17.0,26.0,-999,0.00,,,0.30,,2013-05-21 17:44:00,
2013-05-21 12:53:00,79.0,-99.9,29.74,SSW,203,17.0,26.0,-999,0.00,,,0.30,,2013-05-21 17:53:00,
2013-05-21 13:02:00,80.0,-99.9,29.73,SSW,203,16.0,28.0,-999,0.00,,,0.30,,2013-05-21 18:02:00,
2013-05-21 13:13:00,81.0,-99.9,29.73,SW,225,16.0,28.0,-999,0.00,,,0.30,,2013-05-21 18:13:00,
2013-05-21 13:22:00,81.0,-99.9,29.73,SW,225,16.0,28.0,-999,0.00,,,0.30,,2013-05-21 18:22:00,
2013-05-21 13:32:00,81.0,-99.9,29.73,SW,225,14.0,25.0,-999,0.00,,,0.30,,2013-05-21 18:32:00,
2013-05-21 13:42:00,84.0,-99.9,29.73,SW,225,14.0,21.0,-999,0.00,,,0.30,,2013-05-21 18:42:00,
2013-05-21 13:52:00,84.0,-99.9,29.73,SW,225,14.0,21.0,-999,0.00,,,0.30,,2013-05-21 18:52:00,
2013-05-21 14:02:00,85.0,-99.9,29.73,South,180,13.0,21.0,-999,0.00,,,0.30,,2013-05-21 19:02:00,
2013-05-21 14:12:00,85.0,-99.9,29.73,SW,225,16.0,23.0,-999,0.00,,,0.30,,2013-05-21 19:12:00,
2013-05-21 14:22:00,85.0,-99.9,29.73,SW,225,16.0,23.0,-999,0.00,,,0.30,,2013-05-21 19:22:00,
2013-05-21 14:32:00,83.0,-99.9,29.73,SSW,203,16.0,25.0,-999,0.00,,,0.30,,2013-05-21 19:32:00,
2013-05-21 14:42:00,83.0,-99.9,29.74,SSW,203,15.0,28.0,-999,0.00,,,0.30,,2013-05-21 19:42:00,
2013-05-21 14:52:00,83.0,-99.9,29.74,SSW,203,15.0,28.0,-999,0.00,,,0.30,,2013-05-21 19:52:00,
2013-05-21 15:03:00,84.0,-99.9,29.73,SSW,203,15.0,28.0,-999,0.00,,,0.30,,2013-05-21 20:03:00,
2013-05-21 15:11:00,84.0,-99.9,29.73,SSW,203,15.0,28.0,-999,0.00,,,0.30,,2013-05-21 20:11:00,
2013-05-21 15:22:00,85.0,-99.9,29.73,SSW,203,18.0,25.0,-999,0.00,,,0.30,,2013-05-21 20:22:00,
2013-05-21 15:33:00,84.0,-99.9,29.73,SSW,203,13.0,28.0,-999,0.00,,,0.30,,2013-05-21 20:33:00,
2013-05-21 15:42:00,85.0,-99.9,29.72,SSW,203,16.0,23.0,-999,0.00,,,0.30,,2013-05-21 20:42:00,
2013-05-21 15:52:00,85.0,-99.9,29.72,SSW,203,16.0,23.0,-999,0.00,,,0.30,,2013-05-21 20:52:00,
2013-05-21 16:02:00,84.0,-99.9,29.72,SSW,203,14.0,23.0,-999,0.00,,,0.30,,2013-05-21 21:02:00,
2013-05-21 16:11:00,84.0,-99.9,29.72,SSW,203,14.0,23.0,-999,0.00,,,0.30,,2013-05-21 21:11:00,
2013-05-21 16:22:00,85.0,-99.9,29.72,SSW,203,13.0,25.0,-999,0.00,,,0.30,,2013-05-21 21:22:00,
2013-05-21 16:33:00,86.0,-99.9,29.71,SSW,203,15.0,25.0,-999,0.00,,,0.30,,2013-05-21 21:33:00,
2013-05-21 16:44:00,84.0,-99.9,29.70,SSW,203,14.0,25.0,-999,0.00,,,0.30,,2013-05-21 21:44:00,
2013-05-21 16:54:00,84.0,-99.9,29.70,SSW,203,14.0,25.0,-999,0.00,,,0.30,,2013-05-21 21:54:00,
2013-05-21 17:02:00,85.0,-99.9,29.71,SSW,203,18.0,23.0,-999,0.00,,,0.30,,2013-05-21 22:02:00,
2013-05-21 17:13:00,85.0,-99.9,29.71,SSW,203,18.0,23.0,-999,0.00,,,0.30,,2013-05-21 22:13:00,
2013-05-21 17:23:00,86.0,-99.9,29.70,South,180,13.0,23.0,-999,0.00,,,0.30,,2013-05-21 22:23:00,
2013-05-21 17:34:00,86.0,-99.9,29.70,SSW,203,14.0,24.0,-999,0.00,,,0.30,,2013-05-21 22:34:00,
2013-05-21 17:42:00,87.0,-99.9,29.70,SSW,203,9.0,20.0,-999,0.00,,,0.30,,2013-05-21 22:42:00,
2013-05-21 17:53:00,87.0,-99.9,29.70,SSW,203,9.0,20.0,-999,0.00,,,0.30,,2013-05-21 22:53:00,
2013-05-21 18:02:00,86.0,-99.9,29.69,SSW,203,10.0,18.0,-999,0.00,,,0.30,,2013-05-21 23:02:00,
2013-05-21 18:12:00,86.0,-99.9,29.69,SSW,203,10.0,18.0,-999,0.00,,,0.30,,2013-05-21 23:12:00,
2013-05-21 18:22:00,86.0,-99.9,29.69,South,180,13.0,20.0,-999,0.00,,,0.30,,2013-05-21 23:22:00,
2013-05-21 18:32:00,86.0,-99.9,29.69,SSW,203,10.0,21.0,-999,0.00,,,0.30,,2013-05-21 23:32:00,
2013-05-21 18:42:00,85.0,-99.9,29.69,SSW,203,15.0,20.0,-999,0.00,,,0.30,,2013-05-21 23:42:00,
2013-05-21 18:52:00,85.0,-99.9,29.69,SSW,203,15.0,20.0,-999,0.00,,,0.30,,2013-05-21 23:52:00,
2013-05-21 19:01:00,84.0,-99.9,29.69,SSW,203,13.0,16.0,-999,0.00,,,0.30,,2013-05-22 00:01:00,
2013-05-21 19:11:00,83.0,-99.9,29.69,South,180,14.0,17.0,-999,0.00,,,0.30,,2013-05-22 00:11:00,
2013-05-21 19:22:00,83.0,-99.9,29.69,South,180,14.0,17.0,-999,0.00,,,0.30,,2013-05-22 00:22:00,
2013-05-21 19:32:00,81.0,-99.9,29.69,SSW,203,12.0,20.0,-999,0.00,,,0.30,,2013-05-22 00:32:00,
2013-05-21 19:42:00,78.0,-99.9,29.70,SSW,203,12.0,15.0,-999,0.00,,,0.30,,2013-05-22 00:42:00,
2013-05-21 19:52:00,78.0,-99.9,29.70,SSW,203,12.0,15.0,-999,0.00,,,0.30,,2013-05-22 00:52:00,
2013-05-21 20:01:00,77.0,-99.9,29.70,South,180,10.0,15.0,-999,0.00,,,0.30,,2013-05-22 01:01:00,
2013-05-21 20:11:00,77.0,-99.9,29.70,South,180,10.0,15.0,-999,0.00,,,0.30,,2013-05-22 01:11:00,
2013-05-21 20:22:00,76.0,-99.9,29.71,South,180,14.0,20.0,-999,0.00,,,0.30,,2013-05-22 01:22:00,
2013-05-21 20:32:00,75.0,-99.9,29.72,South,180,15.0,22.0,-999,0.00,,,0.30,,2013-05-22 01:32:00,
2013-05-21 20:42:00,74.0,-99.9,29.72,South,180,15.0,22.0,-999,0.00,,,0.30,,2013-05-22 01:42:00,
2013-05-21 20:52:00,74.0,-99.9,29.72,South,180,15.0,22.0,-999,0.00,,,0.30,,2013-05-22 01:52:00,
2013-05-21 21:02:00,74.0,-99.9,29.72,South,180,12.0,17.0,-999,0.00,,,0.30,,2013-05-22 02:02:00,
2013-05-21 21:12:00,74.0,-99.9,29.73,South,180,10.0,17.0,-999,0.00,,,0.30,,2013-05-22 02:12:00,
2013-05-21 21:22:00,74.0,-99.9,29.73,South,180,10.0,17.0,-999,0.00,,,0.30,,2013-05-22 02:22:00,
2013-05-21 21:32:00,73.0,-99.9,29.73,South,180,12.0,16.0,-999,0.00,,,0.30,,2013-05-22 02:32:00,
2013-05-21 21:42:00,73.0,-99.9,29.74,South,180,9.0,17.0,-999,0.00,,,0.30,,2013-05-22 02:42:00,
2013-05-21 21:52:00,73.0,-99.9,29.74,South,180,9.0,17.0,-999,0.00,,,0.30,,2013-05-22 02:52:00,
2013-05-21 22:01:00,73.0,-99.9,29.73,South,180,7.0,14.0,-999,0.00,,,0.30,,2013-05-22 03:01:00,
2013-05-21 22:11:00,73.0,-99.9,29.73,South,180,7.0,10.0,-999,0.00,,,0.30,,2013-05-22 03:11:00,
2013-05-21 22:22:00,73.0,-99.9,29.73,South,180,7.0,10.0,-999,0.00,,,0.30,,2013-05-22 03:22:00,
2013-05-21 22:33:00,72.0,-99.9,29.72,South,180,5.0,9.0,-999,0.00,,,0.30,,2013-05-22 03:33:00,
2013-05-21 22:43:00,72.0,-99.9,29.71,South,180,6.0,8.0,-999,0.00,,,0.30,,2013-05-22 03:43:00,
2013-05-21 22:53:00,72.0,-99.9,29.71,South,180,6.0,8.0,-999,0.00,,,0.30,,2013-05-22 03:53:00,
2013-05-21 23:04:00,72.0,-99.9,29.71,South,180,7.0,9.0,-999,0.00,,,0.30,,2013-05-22 04:04:00,
2013-05-21 23:13:00,72.0,-99.9,29.71,South,180,7.0,9.0,-999,0.00,,,0.30,,2013-05-22 04:13:00,
2013-05-21 23:23:00,72.0,-99.9,29.70,South,180,8.0,10.0,-999,0.00,,,0.30,,2013-05-22 04:23:00,
2013-05-21 23:33:00,72.0,-99.9,29.70,South,180,8.0,10.0,-999,0.00,,,0.30,,2013-05-22 04:33:00,
2013-05-21 23:43:00,71.0,-99.9,29.71,South,180,3.0,9.0,-999,0.00,,,0.30,,2013-05-22 04:43:00,
2013-05-21 23:53:00,71.0,-99.9,29.71,South,180,3.0,9.0,-999,0.00,,,0.30,,2013-05-22 04:53:00,